Date,TemperatureHighF,TemperatureAvgF,TemperatureLowF,DewpointHighF,DewpointAvgF,DewpointLowF,HumidityHigh,HumidityAvg,HumidityLow,PressureMaxIn,PressureMinIn,WindSpeedMaxMPH,WindSpeedAvgMPH,GustSpeedMaxMPH,PrecipitationSumIn
2013-1-1,75,58,48,60,54,48,99,87,55,30.07,29.86,4,1,0,0.55
2013-1-2,78,64,56,67,61,56,99,89,66,29.92,29.80,5,2,0,0.00
2013-1-3,62,56,49,60,56,49,99,96,85,30.09,29.90,7,2,0,0.12
2013-1-4,59,52,47,53,50,46,99,93,81,30.17,30.07,7,2,0,0.00
2013-1-5,60,52,42,54,49,42,99,90,73,30.19,30.08,8,2,0,0.00
2013-1-6,65,57,51,57,54,50,99,92,74,30.08,29.93,7,2,0,0.51
2013-1-7,62,55,47,56,51,44,99,87,76,30.12,30.00,11,4,0,0.01
2013-1-8,68,61,58,62,58,56,99,92,81,30.10,30.01,5,2,0,0.06
2013-1-9,70,62,59,66,61,58,99,96,84,30.15,30.04,6,2,0,0.00
2013-1-10,72,65,59,67,63,59,99,95,81,30.15,30.06,6,2,0,0.00
2013-1-11,78,66,60,67,64,60,99,92,60,30.06,29.95,5,1,0,0.00
2013-1-12,73,65,59,66,63,58,99,94,79,29.99,29.88,4,1,0,0.00
2013-1-13,74,65,60,66,62,59,99,92,75,29.97,29.86,6,1,0,0.00
2013-1-14,77,66,57,66,62,57,99,89,65,29.98,29.89,5,2,0,0.00
2013-1-15,75,67,59,67,63,59,99,89,74,29.94,29.83,5,2,0,0.00
2013-1-16,82,70,62,66,62,59,98,80,48,29.87,29.75,6,1,0,0.00
2013-1-17,77,60,43,63,53,34,99,79,59,29.93,29.66,9,2,0,0.00
2013-1-18,58,52,42,48,42,33,83,71,64,30.20,29.94,14,7,0,0.00
2013-1-19,60,56,52,54,51,47,95,83,74,30.18,29.98,9,5,0,0.00
2013-1-20,65,58,50,54,52,49,97,83,61,30.01,29.86,8,2,0,0.00
2013-1-21,70,56,48,53,49,43,99,79,47,29.93,29.81,5,1,0,0.00
2013-1-22,63,52,45,43,34,28,72,53,28,30.10,29.87,9,2,0,0.00
2013-1-23,56,47,37,42,36,30,90,67,43,30.22,30.07,8,2,0,0.00
2013-1-24,74,57,42,54,46,39,94,70,42,30.10,29.97,7,1,0,0.00
2013-1-25,70,58,52,56,53,50,97,85,51,30.13,29.96,8,3,0,0.00
2013-1-26,76,62,50,59,55,47,99,79,55,30.03,29.93,6,1,0,0.00
2013-1-27,66,61,58,58,56,54,94,84,70,30.16,30.00,9,4,0,0.04
2013-1-28,68,62,54,63,59,54,99,89,75,30.17,30.05,7,2,0,0.00
2013-1-29,72,65,59,66,62,58,99,91,78,30.05,29.88,6,2,0,0.00
2013-1-30,75,68,60,65,62,56,96,83,68,29.88,29.55,9,3,0,0.06
2013-1-31,60,51,40,55,37,27,94,61,30,30.05,29.65,6,2,0,0.08
2013-2-1,66,50,36,39,33,29,86,55,30,30.13,30.03,9,2,0,0.00
2013-2-2,58,48,38,44,38,28,96,68,46,30.16,29.95,7,2,0,0.00
2013-2-3,67,51,40,42,35,27,99,61,24,29.99,29.83,9,2,0,0.00
2013-2-4,61,51,39,46,42,34,97,74,57,29.94,29.85,5,1,0,0.00
2013-2-5,69,56,43,52,45,38,96,70,34,29.90,29.79,4,1,0,0.00
2013-2-6,66,61,57,58,54,50,89,80,71,29.94,29.83,6,1,0,0.00
2013-2-7,70,65,60,64,61,57,96,87,75,29.89,29.58,10,2,0,0.00
2013-2-8,70,62,54,64,54,51,89,76,55,29.87,29.59,7,3,0,0.00
2013-2-9,65,57,48,52,48,43,95,73,51,30.06,29.86,10,5,0,0.00
2013-2-10,72,64,58,59,56,50,86,76,61,30.11,29.95,9,3,0,0.00
2013-2-11,82,68,61,64,60,57,94,78,52,29.98,29.83,8,2,0,0.00
2013-2-12,82,68,60,66,63,58,97,84,52,29.85,29.63,7,2,0,0.00
2013-2-13,77,70,64,71,64,49,95,80,53,29.69,29.55,6,2,0,0.34
2013-2-14,64,53,48,54,48,44,92,83,62,29.86,29.68,4,2,0,0.09
2013-2-15,61,51,42,49,44,41,96,80,61,29.90,29.77,7,2,0,0.00
2013-2-16,60,48,40,48,40,21,99,78,43,29.93,29.70,7,2,0,0.02
2013-2-17,53,41,33,26,18,8,73,43,17,30.16,29.93,11,3,0,0.00
2013-2-18,60,46,28,49,35,24,98,68,38,30.22,30.02,6,2,0,0.00
2013-2-19,79,64,49,61,52,44,91,67,40,30.03,29.77,8,2,0,0.00
2013-2-20,59,53,46,56,41,30,91,65,40,29.98,29.85,7,2,0,0.00
2013-2-21,64,55,42,61,49,42,99,81,51,29.97,29.83,7,2,0,0.00
2013-2-22,74,68,63,67,64,61,97,87,73,29.87,29.76,9,2,0,0.00
2013-2-23,85,73,61,66,64,60,96,75,48,29.75,29.59,7,2,0,0.47
2013-2-24,70,64,58,62,57,49,98,82,52,29.77,29.61,6,2,0,0.14
2013-2-25,67,63,60,65,61,57,99,93,78,29.72,29.58,12,5,0,2.15
2013-2-26,80,69,60,69,61,52,99,79,40,29.58,29.43,7,3,0,0.72
2013-2-27,72,61,53,53,46,42,81,60,35,29.76,29.59,8,2,0,0.00
2013-2-28,72,59,48,45,41,33,83,54,33,29.76,29.61,8,2,0,0.00
2013-3-1,62,54,48,37,35,32,58,48,37,29.79,29.67,8,3,0,0.00
2013-3-2,59,46,36,37,31,27,92,57,31,29.82,29.71,9,3,0,0.00
2013-3-3,48,41,32,31,27,25,80,59,42,29.93,29.79,7,3,0,0.00
2013-3-4,60,45,30,40,31,22,90,61,24,30.03,29.90,7,2,0,0.00
2013-3-5,78,60,39,55,43,36,92,58,24,29.99,29.65,7,2,0,0.00
2013-3-6,64,52,43,58,35,26,92,54,27,29.93,29.63,10,4,0,0.05
2013-3-7,58,46,37,42,37,30,96,70,53,30.03,29.93,8,3,0,0.00
2013-3-8,64,51,40,48,43,39,99,78,45,30.04,29.95,9,2,0,0.00
2013-3-9,67,58,44,51,45,40,97,65,45,30.09,29.98,11,4,0,0.00
2013-3-10,74,64,58,59,56,51,93,77,57,30.02,29.92,6,3,0,0.00
2013-3-11,74,65,57,60,58,56,97,80,57,29.92,29.68,7,2,0,0.00
2013-3-12,72,65,53,66,58,45,94,79,49,29.79,29.61,6,2,0,0.07
2013-3-13,68,58,49,45,36,29,72,46,24,29.97,29.79,11,4,0,0.00
2013-3-14,56,49,40,38,31,27,91,52,39,30.10,29.95,9,4,0,0.00
2013-3-15,66,52,37,45,38,26,98,66,27,30.08,29.90,7,2,0,0.00
2013-3-16,84,64,47,50,44,40,92,54,28,29.95,29.76,7,2,0,0.00
2013-3-17,81,63,48,58,49,40,88,62,25,29.91,29.77,7,2,0,0.00
2013-3-18,84,68,61,62,59,55,93,75,39,29.84,29.62,5,1,0,0.00
2013-3-19,84,68,59,62,57,54,93,71,40,29.79,29.65,6,2,0,0.00
2013-3-20,67,59,49,57,52,47,96,77,60,29.79,29.61,12,3,0,0.06
2013-3-21,69,55,44,48,34,22,97,52,17,29.74,29.63,9,2,0,0.00
2013-3-22,64,56,45,50,39,32,73,54,37,29.86,29.72,8,4,0,0.00
2013-3-23,70,62,57,66,60,50,99,92,73,29.80,29.56,10,2,0,2.29
2013-3-24,85,71,62,72,65,60,99,83,46,29.58,29.27,8,3,0,0.60
2013-3-25,68,60,51,60,36,26,80,45,22,29.81,29.35,9,4,0,0.00
2013-3-26,59,49,40,29,26,22,57,41,29,30.04,29.80,10,4,0,0.00
2013-3-27,56,46,36,38,32,26,89,58,36,30.11,30.00,9,3,0,0.00
2013-3-28,67,50,38,42,37,30,93,66,27,30.10,30.01,8,2,0,0.00
2013-3-29,70,55,42,47,42,32,96,67,25,30.14,30.00,7,2,0,0.00
2013-3-30,80,60,45,57,47,40,93,67,24,30.06,29.89,6,1,0,0.00
2013-3-31,86,68,54,58,50,42,79,55,32,29.91,29.72,6,2,0,0.00
2013-4-1,83,70,61,63,59,54,87,69,46,29.77,29.64,4,1,0,0.00
2013-4-2,72,64,55,59,55,51,93,76,51,29.90,29.73,10,2,0,0.00
2013-4-3,75,64,55,64,60,54,98,88,65,29.89,29.80,10,3,0,0.28
2013-4-4,79,70,64,69,65,62,97,85,67,29.84,29.61,8,2,0,0.51
2013-4-5,68,58,54,63,55,51,95,90,84,29.81,29.58,8,3,0,0.26
2013-4-6,69,62,52,58,54,49,92,75,62,29.95,29.80,12,5,0,0.00
2013-4-7,78,67,60,64,60,58,95,80,60,29.99,29.87,8,2,0,0.00
2013-4-8,77,66,56,68,61,55,97,84,65,29.95,29.86,7,2,0,0.00
2013-4-9,80,69,61,69,64,60,97,85,67,29.98,29.86,6,2,0,0.00
2013-4-10,80,71,61,69,65,60,97,83,68,29.92,29.78,9,2,0,0.00
2013-4-11,83,73,69,72,68,66,95,86,68,29.78,29.58,6,2,0,0.00
2013-4-12,90,78,70,73,69,64,92,75,51,29.64,29.51,6,2,0,0.00
2013-4-13,74,69,62,66,55,45,84,64,40,29.79,29.63,8,2,0,0.00
2013-4-14,74,65,58,65,61,56,96,88,72,29.80,29.65,7,2,0,1.33
2013-4-15,86,68,61,67,64,60,97,86,48,29.90,29.59,7,2,0,0.00
2013-4-16,78,70,64,68,65,62,96,87,72,29.97,29.86,9,3,0,0.00
2013-4-17,75,70,65,68,66,64,96,87,78,29.96,29.86,8,2,0,0.00
2013-4-18,85,73,64,72,68,63,96,84,66,29.87,29.74,7,2,0,0.00
2013-4-19,84,75,68,73,70,65,94,86,70,29.78,29.63,6,2,0,0.45
2013-4-20,66,57,51,63,53,49,95,87,75,29.97,29.74,9,3,0,0.71
2013-4-21,70,65,60,62,59,53,89,79,71,29.99,29.87,14,7,0,0.00
2013-4-22,66,63,60,63,60,56,93,88,77,29.93,29.82,15,7,0,0.34
2013-4-23,71,65,60,59,57,55,89,76,64,29.96,29.84,12,5,0,0.00
2013-4-24,80,69,58,67,62,56,96,82,63,29.95,29.86,8,2,0,0.00
2013-4-25,86,72,60,70,64,58,95,79,51,29.98,29.87,6,1,0,0.00
2013-4-26,78,70,62,67,63,57,89,79,64,30.07,29.93,10,3,0,0.00
2013-4-27,80,71,65,67,64,62,91,79,60,30.04,29.93,9,4,0,0.00
2013-4-28,85,73,66,69,66,63,93,79,57,29.94,29.77,5,2,0,0.00
2013-4-29,83,71,64,70,66,62,94,83,58,29.80,29.68,6,1,0,0.61
2013-4-30,78,70,64,70,65,62,96,86,71,29.81,29.71,10,3,0,0.01
2013-5-1,77,70,66,68,65,61,93,84,73,29.84,29.74,13,6,0,0.00
2013-5-2,70,68,67,68,66,65,95,92,89,29.81,29.67,18,7,0,3.00
2013-5-3,70,68,65,66,64,62,95,88,75,29.69,29.59,20,11,0,1.39
2013-5-4,70,68,65,68,65,61,95,90,75,29.59,29.47,20,9,0,0.78
2013-5-5,81,69,60,68,58,49,96,72,34,29.65,29.46,8,2,0,0.13
2013-5-6,80,67,56,56,50,45,92,58,31,29.75,29.62,4,1,0,0.00
2013-5-7,82,69,54,60,55,50,87,64,41,29.79,29.66,7,2,0,0.00
2013-5-8,81,69,57,66,61,55,94,76,51,29.87,29.76,6,2,0,0.00
2013-5-9,88,73,62,71,64,59,95,76,39,29.90,29.83,6,2,0,0.00
2013-5-10,89,74,61,72,66,58,93,78,43,29.90,29.76,5,2,0,0.00
2013-5-11,94,76,67,72,68,65,96,78,45,29.81,29.67,5,1,0,0.65
2013-5-12,90,76,66,71,66,59,97,73,44,29.80,29.68,5,1,0,0.00
2013-5-13,83,70,58,60,51,40,90,56,24,29.92,29.76,6,2,0,0.00
2013-5-14,80,68,54,57,52,48,91,61,33,30.02,29.92,7,2,0,0.00
2013-5-15,85,72,56,64,58,51,92,65,31,30.00,29.84,7,2,0,0.00
2013-5-16,87,73,62,70,65,58,90,76,47,29.90,29.79,8,2,0,0.00
2013-5-17,87,74,63,70,67,61,94,78,50,29.91,29.82,6,2,0,0.00
2013-5-18,88,77,67,74,70,65,95,81,58,29.91,29.81,5,2,0,0.05
2013-5-19,86,76,69,74,71,67,94,83,64,29.88,29.79,7,2,0,0.01
2013-5-20,82,75,70,74,71,68,95,87,78,29.88,29.79,6,1,0,0.02
2013-5-21,84,76,69,75,71,68,96,85,62,29.85,29.73,11,2,0,0.00
2013-5-22,87,76,68,75,71,66,97,85,67,29.79,29.69,8,2,0,0.00
2013-5-23,92,78,69,73,70,68,96,80,50,29.76,29.67,7,2,0,0.02
2013-5-24,95,81,70,71,65,54,95,64,30,29.88,29.71,6,2,0,0.00
2013-5-25,84,76,67,66,57,54,93,55,37,30.05,29.88,11,4,0,0.00
2013-5-26,92,75,60,63,57,52,89,56,32,30.03,29.93,8,2,0,0.00
2013-5-27,90,75,61,68,64,58,92,70,45,30.02,29.91,7,2,0,0.00
2013-5-28,88,79,73,70,67,64,81,68,51,29.98,29.91,10,4,0,0.00
2013-5-29,89,80,74,75,73,69,88,79,61,29.97,29.88,8,4,0,0.02
2013-5-30,90,80,74,76,73,71,93,80,63,29.98,29.88,7,3,0,0.11
2013-5-31,91,81,73,75,72,69,89,77,58,29.96,29.87,9,3,0,0.00
2013-6-1,92,81,76,75,73,70,87,77,55,29.89,29.80,10,3,0,0.00
2013-6-2,90,81,76,78,75,72,90,82,66,29.84,29.67,9,2,0,0.00
2013-6-3,97,83,73,78,75,71,94,79,49,29.72,29.63,6,1,0,0.01
2013-6-4,81,77,72,75,73,70,93,88,77,29.78,29.69,4,1,0,0.20
2013-6-5,86,76,72,75,72,70,96,88,63,29.78,29.69,4,1,0,0.02
2013-6-6,77,74,71,75,72,69,97,94,90,29.71,29.41,12,3,0,2.29
2013-6-7,93,80,71,76,72,69,96,78,54,29.68,29.37,6,2,0,0.04
2013-6-8,93,81,72,79,74,70,95,82,50,29.84,29.67,6,2,0,0.00
2013-6-9,91,80,72,78,74,71,94,83,55,29.90,29.80,9,2,0,0.02
2013-6-10,91,81,75,79,76,72,94,83,63,29.87,29.76,7,2,0,0.00
2013-6-11,99,81,74,79,74,71,94,81,46,29.86,29.76,4,1,0,0.32
2013-6-12,103,84,73,80,75,71,96,78,43,29.82,29.71,6,2,0,0.00
2013-6-13,105,87,77,80,76,73,89,73,42,29.75,29.59,4,1,0,0.02
2013-6-14,96,81,71,80,75,69,96,83,55,29.70,29.54,8,2,0,1.12
2013-6-15,89,82,77,73,70,68,88,68,55,29.86,29.70,10,4,0,0.00
2013-6-16,92,82,76,73,71,68,83,71,51,29.90,29.81,9,3,0,0.00
2013-6-17,91,83,77,79,76,72,90,79,67,29.86,29.72,6,2,0,0.00
2013-6-18,99,85,72,77,72,70,94,68,43,29.79,29.66,4,1,0,0.00
2013-6-19,100,82,72,79,74,70,95,78,40,29.79,29.69,6,2,0,1.19
2013-6-20,84,80,77,75,72,71,90,77,71,29.87,29.81,8,4,0,0.03
2013-7-3,78,77,77,73,72,71,85,83,82,29.92,29.90,4,2,0,0.00
2013-7-4,90,82,75,76,73,70,87,75,61,29.94,29.87,4,2,0,0.00
2013-7-5,91,84,77,76,74,72,86,74,62,29.96,29.87,8,2,0,0.00
2013-7-6,94,82,74,77,74,71,91,77,57,29.93,29.84,7,2,0,0.00
2013-7-7,96,82,73,78,73,70,91,76,57,29.94,29.85,11,2,0,0.00
2013-7-8,93,82,73,77,74,70,91,78,60,29.96,29.87,7,2,0,0.00
2013-7-9,93,82,74,78,73,70,91,75,59,29.96,29.85,7,1,0,0.00
2013-7-10,94,82,72,77,72,69,90,74,58,29.87,29.73,8,2,0,0.00
2013-7-11,95,81,74,77,72,69,88,75,56,29.80,29.63,5,1,0,0.00
2013-7-12,95,79,74,77,72,69,90,79,56,29.71,29.63,6,1,0,0.19
2013-7-13,91,78,71,76,72,68,92,81,61,29.78,29.66,7,1,0,0.25
2013-7-14,88,78,73,76,72,70,92,81,66,29.91,29.75,7,2,0,0.00
2013-7-15,89,80,73,77,73,70,91,80,67,29.94,29.86,9,3,0,0.09
2013-7-16,90,83,78,77,74,73,85,76,65,29.98,29.90,10,4,0,0.00
2013-7-17,90,83,78,76,74,71,84,74,63,29.98,29.86,9,4,0,0.00
2013-7-18,92,82,74,76,73,70,89,74,61,29.91,29.81,6,2,0,0.00
2013-7-19,90,81,73,76,72,68,88,75,60,29.90,29.80,5,1,0,0.01
2013-7-20,92,77,72,77,71,68,90,81,61,29.88,29.78,5,1,0,0.25
2013-7-21,97,80,72,77,72,69,90,78,50,29.87,29.76,4,1,0,0.03
2013-7-22,98,80,75,77,73,71,90,80,47,29.87,29.77,4,1,0,0.29
2013-7-23,96,80,74,78,73,70,89,79,57,29.79,29.66,4,2,0,0.13
2013-7-24,91,80,73,76,72,68,89,79,62,29.68,29.55,5,2,0,0.08
2013-7-25,95,81,73,78,73,69,88,77,53,29.71,29.58,6,1,0,0.00
2013-7-26,92,82,75,78,75,72,91,81,64,29.78,29.69,8,2,0,0.00
2013-7-27,95,82,75,80,75,70,91,79,62,29.77,29.64,6,1,0,0.00
2013-7-28,90,80,73,77,73,70,90,81,62,29.81,29.67,7,1,0,0.36
2013-7-29,93,81,72,79,74,69,93,80,62,29.92,29.78,6,1,0,0.00
2013-7-30,98,84,75,80,75,72,89,77,56,29.93,29.84,6,1,0,0.00
2013-7-31,96,78,73,80,73,70,91,85,59,29.89,29.78,4,0,0,0.48
2013-8-1,94,76,71,78,71,68,92,86,59,29.81,29.69,8,1,0,1.42
2013-8-2,90,80,71,78,74,69,93,81,69,29.79,29.70,4,1,0,0.01
2013-8-3,97,82,74,80,75,71,92,81,54,29.80,29.72,8,1,0,0.82
2013-8-4,98,85,76,80,76,74,91,76,51,29.80,29.68,5,1,0,0.00
2013-8-5,98,85,78,79,76,74,88,77,55,29.76,29.67,9,2,0,0.00
2013-8-6,96,84,78,81,77,74,89,78,62,29.77,29.66,8,2,0,0.00
2013-8-7,92,84,80,79,76,74,84,77,65,29.78,29.70,9,4,0,0.00
2013-8-8,96,85,79,81,76,74,88,76,63,29.82,29.72,6,2,0,0.00
2013-8-9,96,85,80,80,76,73,84,75,58,29.86,29.74,9,3,0,0.00
2013-8-10,94,84,76,79,76,72,90,76,58,29.92,29.83,7,2,0,0.00
2013-8-11,94,84,76,80,76,73,89,77,60,29.94,29.83,7,1,0,0.00
2013-8-12,94,84,76,80,76,71,88,76,63,29.89,29.74,5,1,0,0.00
2013-8-13,97,84,76,80,75,71,86,75,54,29.79,29.64,4,1,0,0.00
2013-8-14,99,83,73,81,75,68,89,77,46,29.76,29.62,6,1,0,0.06
2013-8-15,93,81,74,79,74,70,91,80,64,29.80,29.66,4,1,0,0.05
2013-8-16,93,79,72,78,73,70,92,83,56,29.82,29.70,4,1,0,1.21
2013-8-17,88,79,74,78,75,71,93,86,70,29.87,29.76,6,1,0,0.09
2013-8-18,92,82,75,80,76,72,92,82,68,29.89,29.81,7,2,0,0.05
2013-8-19,92,84,77,80,76,73,91,79,64,29.87,29.74,5,1,0,0.00
2013-8-20,95,84,74,81,76,71,91,78,64,29.89,29.78,7,2,0,0.00
2013-8-21,92,83,78,80,76,72,86,80,67,29.94,29.84,6,2,0,0.28
2013-8-22,82,78,73,77,74,70,92,87,78,29.92,29.77,10,1,0,0.82
2013-8-23,87,79,76,78,74,73,92,86,72,29.81,29.75,5,1,0,0.22
2013-8-24,85,80,74,77,74,72,92,83,73,29.91,29.78,7,2,0,0.00
2013-8-25,85,80,75,76,73,70,87,79,73,29.97,29.88,12,6,0,0.09
2013-8-26,87,82,78,76,73,70,83,76,64,29.95,29.82,13,6,0,0.00
2013-8-27,89,82,77,74,71,68,80,69,55,29.87,29.76,9,3,0,0.00
2013-8-28,91,80,70,73,70,67,90,71,52,29.82,29.72,7,1,0,0.00
2013-8-29,100,84,72,76,71,67,87,67,39,29.79,29.65,4,1,0,0.00
2013-8-30,96,83,76,80,74,70,86,74,49,29.73,29.61,5,1,0,0.00
2013-8-31,92,82,74,80,74,69,90,78,66,29.73,29.61,7,1,0,0.00
2013-9-1,98,81,73,78,73,69,91,78,44,29.74,29.63,7,1,0,0.46
2013-9-2,99,80,72,80,73,70,93,82,52,29.75,29.64,5,1,0,0.57
2013-9-3,98,82,74,79,74,71,93,79,52,29.76,29.64,5,1,0,0.00
2013-9-4,93,82,75,79,75,70,91,78,64,29.84,29.72,5,1,0,0.00
2013-9-5,95,83,74,79,75,71,90,78,57,29.87,29.76,4,1,0,0.00
2013-9-6,90,80,74,78,73,70,89,80,65,29.83,29.74,8,1,0,0.00
2013-9-7,90,81,73,75,72,70,91,76,59,29.80,29.70,10,4,0,0.00
2013-9-8,90,83,77,72,70,68,81,67,55,29.76,29.67,9,4,0,0.00
2013-9-9,92,81,71,75,71,68,90,72,57,29.84,29.72,8,3,0,0.00
2013-9-10,90,84,80,74,72,70,77,69,57,29.92,29.80,11,5,0,0.00
2013-9-11,89,83,79,77,74,70,81,74,63,29.89,29.79,11,4,0,0.00
2013-9-12,88,80,74,77,73,69,92,79,56,29.82,29.65,7,1,0,0.92
2013-9-13,98,82,72,76,72,68,92,74,42,29.68,29.52,5,1,0,0.00
2013-9-14,92,82,73,78,74,70,88,77,63,29.76,29.56,6,1,0,0.01
2013-9-15,92,82,74,79,75,71,92,80,64,29.85,29.74,7,2,0,0.14
2013-9-16,93,83,74,78,75,70,91,78,62,29.87,29.77,8,2,0,0.00
2013-9-17,87,81,75,77,74,71,88,79,70,29.87,29.76,14,5,0,0.16
2013-9-18,84,79,74,74,72,70,91,79,70,29.87,29.78,15,8,0,0.81
2013-9-19,87,81,76,74,71,68,83,73,62,29.86,29.77,11,5,0,0.04
2013-9-20,87,78,71,74,70,67,91,76,59,29.82,29.68,7,2,0,0.57
2013-9-21,90,78,69,74,70,66,92,77,59,29.71,29.50,5,1,0,0.00
2013-9-22,87,77,72,76,71,69,91,83,69,29.61,29.48,5,0,0,0.16
2013-9-23,84,77,72,75,72,69,92,85,74,29.72,29.59,6,0,0,0.28
2013-9-24,80,76,73,75,72,70,93,90,81,29.72,29.56,5,1,0,0.97
2013-9-25,83,77,74,76,73,72,93,88,79,29.58,29.48,4,0,0,0.11
2013-9-26,79,75,71,74,71,68,93,88,77,29.66,29.49,8,2,0,0.02
2013-9-27,81,76,70,73,70,66,90,82,75,29.76,29.63,15,5,0,0.53
2013-9-28,80,76,72,71,69,67,90,80,72,29.83,29.72,14,6,0,0.05
2013-9-29,83,76,70,72,70,67,91,79,69,29.79,29.72,10,6,0,0.60
2013-9-30,83,77,74,69,67,63,81,72,58,29.82,29.69,10,4,0,0.00
2013-10-1,81,75,70,70,65,63,85,72,61,29.87,29.77,7,3,0,0.00
2013-10-2,84,76,68,69,67,63,86,73,61,29.86,29.80,10,4,0,0.00
2013-10-3,85,79,75,75,72,69,86,81,72,29.88,29.78,9,4,0,0.00
2013-10-4,86,79,72,77,74,70,91,84,73,29.88,29.78,8,3,0,0.00
2013-10-5,85,78,72,76,73,69,92,84,75,29.85,29.76,9,3,0,0.00
2013-10-6,86,79,74,78,74,71,93,85,74,29.77,29.63,6,2,0,0.64
2013-10-7,86,77,73,78,73,69,92,87,74,29.63,29.51,8,2,0,2.07
2013-10-8,82,74,70,76,70,66,93,89,80,29.77,29.52,13,5,0,1.04
2013-10-9,71,65,62,66,62,60,93,90,82,29.86,29.74,5,2,0,0.03
2013-10-10,80,70,64,68,64,62,94,83,63,29.84,29.72,8,1,0,0.01
2013-10-11,88,72,63,67,63,61,94,77,45,29.80,29.67,5,1,0,0.00
2013-10-12,88,72,63,67,63,59,93,76,41,29.81,29.71,5,1,0,0.00
2013-10-13,85,73,64,71,65,61,92,79,49,29.86,29.76,9,2,0,0.00
2013-10-14,78,72,68,70,67,65,92,86,77,29.83,29.74,9,3,0,0.19
2013-10-15,75,72,68,70,68,66,93,87,83,29.77,29.69,13,6,0,0.20
2013-10-16,82,75,69,72,69,65,90,82,73,29.75,29.68,8,3,0,0.00
2013-10-17,83,75,68,74,70,66,93,84,72,29.74,29.64,6,1,0,0.00
2013-10-18,88,77,69,76,72,67,93,85,61,29.75,29.64,6,1,0,0.00
2013-10-19,92,78,72,77,73,69,92,85,57,29.71,29.60,4,1,0,0.10
2013-10-20,78,73,67,71,66,63,93,81,67,29.76,29.64,7,2,0,0.00
2013-10-21,82,76,74,75,71,68,89,85,79,29.79,29.70,9,4,0,0.00
2013-10-22,80,75,71,74,72,69,93,89,81,29.73,29.56,6,2,0,0.91
2013-10-23,75,67,59,68,58,49,95,76,48,29.80,29.56,4,2,0,0.07
2013-10-24,70,60,54,58,51,44,92,71,53,29.95,29.79,6,2,0,0.00
2013-10-25,72,61,52,56,52,48,94,74,54,30.04,29.94,10,2,0,0.00
2013-10-26,72,63,55,59,53,47,90,71,58,30.02,29.90,8,2,0,0.00
2013-10-27,72,60,50,53,50,44,94,73,38,29.95,29.87,6,1,0,0.00
2013-10-28,75,65,54,64,58,51,95,80,63,30.01,29.90,8,2,0,0.00
2013-10-29,78,70,61,67,63,58,91,80,68,30.06,29.95,10,3,0,0.00
2013-10-30,78,73,69,71,66,64,84,78,72,30.03,29.92,8,4,0,0.00
2013-10-31,83,75,67,72,69,64,92,83,67,29.93,29.73,6,1,0,0.00
2013-11-1,86,76,70,71,69,66,90,80,61,29.76,29.56,6,1,0,0.00
2013-11-2,75,66,57,71,63,56,94,91,78,29.73,29.53,4,0,0,2.75
2013-11-3,71,63,53,58,52,47,94,70,46,29.97,29.72,14,5,0,0.00
2013-11-4,74,69,66,64,60,52,88,74,60,30.04,29.94,17,9,0,0.06
2013-11-5,72,69,66,67,65,63,91,88,81,30.05,29.95,14,7,0,0.14
2013-11-6,76,71,68,70,67,64,92,87,79,29.95,29.84,7,3,0,0.03
2013-11-7,77,69,66,68,65,63,92,87,72,29.84,29.73,5,1,0,0.00
2013-11-8,69,64,60,64,55,50,86,73,69,29.99,29.79,13,7,0,0.00
2013-11-9,74,68,65,64,61,56,89,76,63,30.02,29.93,10,5,0,0.00
2013-11-10,73,66,59,66,62,56,93,87,75,30.00,29.91,7,2,0,0.00
2013-11-11,74,65,57,64,61,55,93,85,67,29.99,29.89,7,2,0,0.00
2013-11-12,77,67,60,66,61,49,91,82,67,29.91,29.79,8,1,0,0.00
2013-11-13,60,53,50,49,44,41,83,73,66,30.22,29.93,17,8,0,0.00
2013-11-14,66,62,54,60,55,46,86,80,71,30.17,30.00,12,5,0,0.00
2013-11-15,69,64,57,65,60,54,92,89,82,30.03,29.85,5,0,0,0.06
2013-11-16,74,67,62,68,64,60,93,89,81,29.97,29.86,7,2,0,0.00
2013-11-17,76,70,66,70,67,64,93,90,81,29.89,29.77,5,1,0,0.43
2013-11-18,84,73,67,75,69,65,93,89,73,29.79,29.64,3,0,0,0.30
2013-11-19,71,64,55,69,58,48,93,79,72,29.82,29.66,12,4,0,0.00
2013-11-20,68,66,63,64,62,59,92,88,81,29.96,29.79,9,5,0,0.62
2013-11-21,72,67,64,66,63,62,92,89,83,30.04,29.93,8,3,0,0.01
2013-11-22,78,68,62,68,64,59,92,86,71,30.03,29.89,5,1,0,0.00
2013-11-23,75,67,59,67,62,57,93,86,75,29.91,29.77,4,1,0,0.01
2013-11-24,64,58,54,59,49,43,85,73,64,30.15,29.83,14,7,0,0.00
2013-11-25,70,63,56,60,56,47,82,77,68,30.13,29.89,14,5,0,0.01
2013-11-26,72,68,65,68,64,60,92,88,81,29.90,29.44,8,1,0,0.98
2013-11-27,71,55,39,68,50,32,92,82,71,30.02,29.36,7,2,0,0.19
2013-11-28,55,45,35,46,38,30,88,79,66,30.20,30.02,10,2,0,0.00
2013-11-29,61,55,44,53,50,41,91,82,75,30.22,30.15,11,4,0,0.00
2013-11-30,60,58,55,56,54,52,89,87,83,30.18,30.02,12,5,0,0.01
2013-12-1,65,59,55,58,55,52,91,85,76,30.01,29.78,6,1,0,0.00
2013-12-2,62,56,51,55,52,48,92,87,76,29.77,29.60,7,1,0,0.00
2013-12-3,66,58,50,59,55,47,93,87,76,29.76,29.66,5,1,0,0.00
2013-12-4,75,64,57,66,60,55,92,87,70,29.88,29.73,3,0,0,0.00
2013-12-5,74,22,-40,67,19,-44,92,85,79,29.95,29.85,6,1,0,0.00
2013-12-6,73,69,62,69,65,59,92,87,84,29.94,29.85,5,1,0,0.00
2013-12-7,110,46,-40,100,37,-100,92,79,84,30.00,29.90,5,1,0,0.00
2013-12-8,82,64,62,78,61,60,92,90,87,30.03,29.92,5,2,0,0.00
2013-12-9,69,66,61,65,63,58,93,90,86,29.96,29.83,6,1,0,0.00
2013-12-10,114,33,-39,100,30,-42,92,88,83,30.03,29.78,5,1,0,0.25
2013-12-11,-34,-39,-40,-36,-42,-42,88,88,88,30.08,29.99,9,4,0,0.00
2013-12-12,-40,-40,-40,-42,-42,-42,88,88,88,30.16,30.01,9,2,0,0.00
2014-1-1,58,56,57,58,52,-100,99,95,99,29.97,29.87,5,-34,0,0.58
2014-1-2,64,59,53,63,59,50,99,98,89,29.86,29.52,6,2,0,1.77